Temp_Advection
nan nan nan nan nan nan nan nan nan nan nan nan nan nan nan nan nan nan nan nan nan nan nan nan nan nan nan nan nan nan nan nan nan nan nan nan nan nan nan nan nan nan nan nan
nan -0 -0 -0 -0 -0 0 -0 -0 0 0 -0 -0 -0 -0 -1 -0 -0 0 0 -0 -1 -0 -0 -0 -0 -0 0 -0 -0 -0 -0 0 0 0 -0 0 0 0 -0 -0 -0 0 nan
nan -0 -0 -0 -0 -0 0 0 0 -0 -0 -0 -0 -0 -0 -0 -0 0 -0 -0 -0 -0 -0 -0 -0 0 0 -0 -0 -0 -0 -0 -0 0 -0 -0 0 -0 0 -0 -0 -0 -0 nan
nan 0 -0 -0 -0 0 0 -0 0 -0 -0 -0 -0 -0 -0 -0 0 0 -0 0 -0 -0 -0 0 -0 0 0 0 0 0 0 -0 -0 -0 0 -0 -0 -0 -0 -0 -0 -0 0 nan
nan 0 -0 -0 -0 0 -0 -0 -0 -0 -0 -0 -0 -0 -0 0 0 -0 0 0 0 -0 -0 -0 -0 -0 -0 -0 0 0 -0 0 0 -0 0 0 -0 0 -0 0 0 -0 0 nan
nan 0 -0 -0 -0 -0 -0 -0 -0 -0 -0 -0 -0 -0 0 0 0 0 -0 1 0 0 -0 -0 0 -0 -0 -0 0 0 -0 0 0 0 0 0 0 0 0 0 -0 -0 -0 nan
nan 0 0 -0 -0 -0 -0 -0 0 -0 -0 0 -0 0 -0 0 0 0 -0 0 -0 0 1 1 -0 -0 0 -0 -1 0 0 -0 -0 0 0 -0 0 -0 0 0 -0 0 0 nan
nan 0 -0 -0 -0 -0 -0 -0 -0 -0 0 0 0 0 -0 -0 -0 -0 0 -0 1 0 -0 0 -0 -0 -0 -0 0 -0 0 0 0 0 -0 -0 0 0 0 0 0 0 0 nan
nan 0 0 -0 -0 -0 -0 -0 -0 0 0 -0 0 0 -0 -0 -0 -0 -0 0 1 -0 -0 0 0 0 0 -0 -0 0 -0 -0 -0 0 0 -0 0 -0 -0 -0 0 0 -0 nan
nan 1 0 -0 -0 -0 -0 -0 -0 -0 -0 -0 0 -0 -0 -0 -0 -0 -0 -0 0 -0 0 0 0 0 0 0 -0 -0 -0 0 0 -0 0 -0 0 0 0 0 0 -0 0 nan
nan 1 0 -0 -0 -0 -0 -0 -0 -0 0 0 0 -0 -0 -0 -0 -0 -0 0 -0 -0 0 0 0 0 0 0 0 0 -0 -0 0 0 0 0 0 0 0 0 1 0 -0 nan
nan 1 0 -0 -0 -0 -0 -0 -0 -0 0 0 0 0 0 0 -0 -1 -1 0 -0 -0 -0 0 0 0 0 0 0 -0 0 0 0 -0 0 -0 0 -0 0 -0 -1 0 0 nan
nan 1 0 -0 -1 -0 -0 -0 -0 -0 -0 0 0 0 0 0 0 -0 -0 -0 -0 -0 -0 -0 0 -0 -0 0 0 -0 0 0 0 0 -0 -0 0 1 0 0 -0 -0 0 nan
nan 1 0 -0 -0 0 -0 -0 0 -0 -0 -0 0 0 0 0 0 0 0 -0 -0 -0 -0 -0 0 0 0 0 0 0 0 0 -0 -0 0 0 0 0 0 0 0 0 0 nan
nan 1 0 -0 0 0 -0 -0 -0 -0 0 -0 0 0 0 0 0 0 0 0 0 -0 -0 -0 -0 -0 -0 -0 0 0 -0 -0 -0 -0 -0 -0 -0 0 0 0 0 0 0 nan
nan 0 0 -0 0 -0 -0 -0 -0 -0 0 -0 -0 0 0 0 0 0 0 0 -0 -0 -0 -0 0 0 -0 -0 -0 -0 -1 -0 -0 -0 -0 0 0 0 0 0 0 0 0 nan
nan 0 0 0 0 0 0 -0 0 0 0 -0 -0 0 0 0 0 0 0 0 0 -0 -0 -0 0 0 0 -0 0 -0 0 0 1 0 -1 -1 0 0 0 0 0 0 0 nan
nan 0 0 0 0 0 0 0 0 0 0 -0 -0 0 0 0 0 0 0 0 -0 -0 -0 -0 -0 -0 0 -0 0 0 1 0 1 1 0 -0 -0 -0 0 0 0 0 0 nan
nan -0 0 0 0 0 0 0 -0 0 0 -0 0 0 0 0 -0 0 0 -0 -0 -0 0 0 -0 -0 -0 -0 -1 -1 0 -0 -0 0 1 1 0 0 0 0 0 0 0 nan
nan 0 0 0 0 0 0 0 0 0 -0 -0 -0 0 0 0 -0 0 0 -0 0 0 -0 0 0 -0 -0 -0 -1 -0 -0 -0 -1 -2 -0 0 0 -0 -0 0 0 0 0 nan
nan -0 -0 0 1 0 -0 -0 0 0 -0 0 -0 0 0 0 -0 -0 -0 0 -0 0 -0 0 0 0 -0 1 1 1 0 0 0 -0 -1 -0 -0 -0 0 0 0 0 0 nan
nan -0 -0 1 0 -0 -0 -0 0 0 0 0 0 0 0 0 -0 -0 -0 -0 -0 -0 -0 0 0 -0 -0 1 0 1 1 1 0 1 0 0 0 0 0 0 0 0 0 nan
nan 0 0 -0 0 0 0 0 0 0 0 0 0 0 0 0 -0 -0 -0 -0 -0 0 0 0 0 -0 0 0 1 0 1 1 0 0 0 0 0 0 0 0 -0 -0 0 nan
nan 0 0 0 0 0 0 0 0 -0 -0 -0 -0 -0 0 -0 -0 0 -0 -0 -0 -0 0 0 -0 -1 -0 0 1 1 0 0 0 0 0 0 0 0 0 0 -0 -0 -0 nan
nan 0 0 0 -0 -0 0 0 0 0 0 -1 -1 -0 -0 -0 0 -0 0 0 0 0 1 -0 -1 0 -1 -1 -0 0 -0 -0 0 0 0 0 0 0 0 0 -0 -0 0 nan
nan -0 -0 -0 0 0 0 0 0 0 1 2 -1 -1 0 0 0 -0 0 0 1 0 -0 -1 -0 -0 -0 -0 -0 0 0 0 0 0 0 0 0 0 0 0 0 -0 -0 nan
nan nan nan nan nan nan nan nan nan nan nan nan nan nan nan nan nan nan nan nan nan nan nan nan nan nan nan nan nan nan nan nan nan nan nan nan nan nan nan nan nan nan nan nan
Wind_Speed
19 16 14 13 11 10 7 3 2 3 33 6 4 3 5 8 9 25 12 8 6 7 10 8 6 10 5 23 9 7 6 6 4 4 1 4 6 8 7 4 3 1 2 5
19 15 14 12 10 7 5 4 4 11 32 3 5 4 13 13 9 12 4 5 4 9 8 7 5 7 13 22 16 9 6 2 5 4 1 3 4 4 4 4 3 6 5 4
18 15 14 12 10 8 7 5 3 6 18 7 3 5 2 5 6 2 3 4 7 7 9 2 6 7 5 18 15 13 7 3 5 8 4 6 5 5 5 8 4 5 6 4
18 15 15 13 12 9 7 7 5 8 5 7 10 4 6 9 5 9 4 5 14 10 5 4 5 5 4 4 15 4 3 3 3 1 2 6 6 8 11 10 10 10 7 8
17 16 15 13 13 11 11 5 4 6 3 4 7 7 4 11 6 4 5 9 18 5 6 6 10 8 5 8 3 6 2 3 3 1 2 4 5 6 12 11 4 7 5 7
17 16 15 15 15 12 8 7 8 3 2 2 4 4 5 6 5 2 3 13 5 4 1 3 14 14 7 8 6 4 5 6 4 3 2 5 4 10 11 7 5 11 11 9
17 16 16 16 18 16 14 8 5 4 3 3 4 5 3 5 3 4 4 6 5 4 24 26 23 18 16 13 7 3 5 4 3 3 2 2 5 1 6 8 4 5 3 5
18 16 15 17 17 17 15 13 8 4 3 2 1 4 5 8 7 5 2 6 12 20 1 5 5 4 5 5 5 6 1 5 3 4 4 4 1 4 6 7 5 6 8 6
17 16 16 16 16 16 14 12 12 6 1 4 3 4 4 4 4 3 5 6 13 4 3 3 4 4 5 6 6 1 5 4 2 2 4 6 1 2 6 4 3 8 9 8
18 16 17 16 17 17 13 10 11 7 4 3 5 3 5 7 5 4 5 5 2 4 2 2 3 3 3 4 6 3 3 2 6 3 3 5 4 4 6 4 3 9 15 16
18 16 16 16 17 17 13 11 11 10 3 3 3 3 4 6 6 5 10 5 2 3 2 1 2 3 4 3 4 5 6 6 4 3 2 7 4 4 6 4 13 19 18 14
18 16 18 17 17 18 13 11 10 9 3 3 6 7 6 5 6 11 15 5 6 9 4 2 3 2 2 4 4 0 3 4 4 6 3 1 0 1 10 24 26 15 15 11
18 18 19 18 19 18 15 12 12 10 6 6 4 5 7 6 6 12 5 4 7 5 4 4 3 3 3 4 4 3 2 3 3 3 0 2 10 18 16 18 17 13 11 10
16 19 19 19 20 19 17 13 17 10 5 4 1 5 4 4 5 7 5 7 9 10 5 3 3 3 3 3 2 3 3 5 5 2 2 6 7 14 18 16 13 11 9 8
17 20 19 19 21 17 16 14 16 16 4 4 5 6 5 5 4 4 7 11 11 5 3 3 2 4 4 1 2 2 6 6 5 5 14 6 14 17 16 14 12 10 9 9
18 21 19 20 22 17 14 5 13 15 11 6 3 4 3 8 7 8 9 7 6 4 4 2 3 2 3 3 3 3 11 9 7 5 20 6 23 19 16 14 13 11 8 7
20 22 21 22 20 19 7 4 11 17 11 3 3 2 4 8 6 5 5 5 5 4 4 3 3 2 6 3 4 5 13 11 10 17 21 17 19 14 16 12 11 9 6 4
25 23 24 24 18 19 6 8 15 16 6 3 3 1 3 5 3 3 3 3 3 4 4 3 2 3 2 3 5 10 16 14 17 24 9 20 19 19 14 12 10 6 3 3
28 27 25 20 15 7 9 12 11 4 3 6 3 5 4 7 4 3 3 3 2 1 1 1 4 2 4 6 12 21 25 21 21 16 17 21 18 15 14 11 7 4 3 3
34 29 11 7 11 15 15 6 5 4 2 3 2 6 3 5 3 2 2 3 1 1 1 1 2 3 7 8 18 22 27 21 29 27 18 17 15 16 12 7 4 3 3 4
34 10 5 22 27 10 3 3 3 2 1 3 5 5 4 3 3 3 1 2 1 2 2 2 2 4 4 13 17 23 23 24 23 16 14 13 16 14 9 5 3 2 3 4
17 15 23 24 6 3 4 3 1 4 6 6 4 6 7 6 5 3 1 3 2 2 1 1 3 3 6 14 17 19 23 28 18 20 22 17 12 8 6 3 2 1 3 4
35 12 6 6 2 3 8 9 4 2 5 11 9 5 7 6 4 4 3 4 3 2 1 4 4 1 11 12 20 22 28 21 24 22 17 12 9 6 4 2 0 3 4 6
6 5 7 6 5 5 4 4 4 5 10 23 18 6 4 4 3 3 5 1 3 2 3 5 3 8 11 12 18 31 28 22 22 17 12 8 6 5 3 2 3 5 6 7
4 5 5 4 4 3 6 10 10 8 26 28 14 8 6 2 4 2 4 4 4 5 5 3 4 16 18 18 22 27 28 22 15 10 7 6 5 4 4 4 5 7 7 8
2 3 4 6 4 1 3 10 10 19 29 24 7 4 4 2 6 4 6 7 6 4 3 4 20 26 24 22 20 18 15 12 9 7 6 4 4 5 6 6 7 8 9 9
2 1 3 5 4 5 7 14 17 30 20 2 3 5 5 4 3 5 4 5 3 4 6 19 27 28 24 19 15 12 10 8 6 3 3 5 6 6 7 8 9 10 9 7
Wind_Direction
279 269 254 263 258 282 281 225 232 182 161 160 188 213 200 228 218 198 208 161 140 156 153 166 175 182 232 174 181 174 213 127 140 180 98 204 164 176 180 150 198 102 124 274
277 267 249 254 238 260 254 190 133 165 169 228 221 232 245 213 185 206 204 163 164 147 147 180 168 166 204 183 200 183 182 135 110 113 357 28 189 166 162 115 84 181 154 252
278 262 240 242 222 238 229 189 150 152 217 254 284 217 215 173 214 234 227 181 132 138 150 159 172 154 187 191 200 216 147 128 160 191 153 137 174 171 182 178 179 177 218 238
280 259 234 232 214 230 222 212 222 185 191 231 228 215 200 225 200 226 240 157 173 161 136 125 135 159 121 148 178 120 160 169 147 7 224 188 177 178 179 197 203 204 214 212
274 256 234 225 210 221 223 225 193 191 252 234 186 193 220 196 215 212 189 151 189 184 152 189 171 146 181 161 176 126 296 182 132 80 126 172 202 203 195 205 166 240 165 238
272 250 235 220 207 217 219 235 248 231 211 191 178 198 193 201 174 89 32 140 123 120 128 211 148 133 145 138 129 121 147 138 145 211 161 143 284 206 191 201 194 203 210 228
274 253 235 215 208 215 228 240 247 204 245 202 222 153 133 153 216 120 11 70 113 107 110 98 93 99 77 119 45 51 146 108 57 148 114 199 247 76 189 176 180 187 113 148
266 262 226 209 209 215 236 236 229 238 258 208 200 144 121 114 68 72 72 35 114 157 259 80 72 28 83 42 8 23 48 141 127 151 193 286 212 199 154 172 222 188 151 132
263 261 221 209 206 213 230 229 227 254 208 240 135 134 165 136 106 66 7 89 137 84 38 93 126 174 162 170 150 214 68 78 125 175 159 205 248 173 173 134 276 173 145 137
262 261 216 209 203 210 222 222 222 225 248 195 157 171 170 138 105 101 138 133 65 54 73 146 149 142 157 150 148 174 92 71 183 166 209 287 226 160 144 129 228 137 145 140
257 252 212 209 201 206 213 220 220 207 238 176 163 156 155 141 150 144 156 101 169 76 171 180 189 129 198 117 144 182 167 156 183 111 139 255 158 112 165 157 123 136 133 135
252 238 210 205 198 202 208 208 209 197 205 147 126 117 132 154 151 141 165 150 164 172 116 163 112 112 110 170 193 67 201 177 181 176 211 304 122 330 137 144 136 136 135 138
246 224 210 200 194 196 204 197 192 167 139 124 131 111 113 115 134 155 130 182 165 169 143 150 146 128 138 157 228 126 241 200 111 119 348 50 119 127 133 137 133 132 137 144
239 215 206 195 188 190 202 209 192 188 151 116 144 141 129 114 120 154 161 163 154 140 128 101 122 125 197 184 150 154 196 133 133 69 49 104 149 141 139 136 138 143 148 162
232 208 198 188 183 188 205 215 202 199 192 127 132 121 66 119 107 133 132 146 139 127 81 71 125 118 125 10 75 223 192 168 162 211 191 157 180 162 156 152 154 159 168 177
219 197 189 179 179 184 183 191 207 196 162 126 127 134 113 118 122 135 136 127 106 97 100 115 104 136 124 123 192 262 188 183 157 167 160 159 156 158 163 163 162 170 181 195
201 184 172 165 175 184 183 225 166 177 172 141 101 76 146 144 125 109 96 104 91 78 98 81 134 154 166 129 189 210 188 181 175 154 140 128 148 156 160 168 169 176 190 220
178 168 164 170 174 188 176 147 157 163 153 145 110 115 143 154 100 91 93 90 86 58 113 130 136 135 110 239 215 165 169 164 165 164 160 164 158 157 163 168 168 180 210 260
159 156 156 159 172 162 149 150 168 153 171 130 115 147 172 150 98 97 76 77 78 72 126 145 153 165 220 221 182 176 173 169 167 162 146 148 154 163 165 163 173 194 242 280
152 153 144 148 160 143 135 129 156 206 340 105 99 125 125 138 121 78 101 40 86 136 57 160 211 248 248 225 198 186 178 175 163 148 148 159 163 160 162 166 185 238 265 277
159 152 118 137 139 133 127 111 119 173 341 174 136 138 125 128 119 124 68 146 53 152 234 210 254 261 229 182 175 174 169 169 163 169 174 166 157 155 157 171 203 247 269 278
159 144 128 130 141 107 117 168 156 208 207 160 134 138 118 120 123 103 31 111 53 214 260 240 259 247 178 171 168 172 174 159 154 151 147 145 141 142 146 151 180 267 289 283
131 125 134 148 144 143 178 181 202 189 174 166 153 130 128 117 99 76 98 87 182 110 156 234 230 229 177 179 179 165 167 161 154 148 145 138 136 137 140 141 319 318 312 302
118 137 138 191 183 212 187 178 163 163 151 142 130 99 109 116 70 140 96 163 128 134 242 240 253 196 167 159 168 170 164 163 158 154 151 149 152 164 175 217 309 328 321 309
126 149 187 188 112 69 119 122 120 127 149 141 113 85 97 93 115 81 120 148 203 215 230 229 219 160 154 144 142 149 153 160 164 167 177 196 213 233 258 297 316 315 311 305
112 105 101 107 86 101 158 144 140 146 153 144 99 114 90 143 140 157 194 163 214 238 213 204 154 153 152 147 144 146 153 161 171 183 197 217 254 277 292 302 302 306 307 298
89 83 123 141 100 146 172 165 160 160 160 117 120 111 178 112 129 179 178 200 216 235 187 153 151 147 145 144 144 145 151 158 162 180 256 269 270 286 298 303 307 311 306 286
Height
1408 1408 1408 1409 1409 1409 1409 1409 1409 1406 1407 1415 1414 1410 1407 1405 1397 1401 1399 1401 1406 1414 1418 1428 1428 1430 1429 1430 1435 1442 1439 1450 1464 1463 1458 1458 1461 1467 1471 1478 1489 1497 1493 1476
1401 1403 1403 1404 1405 1405 1407 1406 1406 1408 1409 1405 1406 1403 1401 1400 1395 1396 1396 1396 1397 1404 1414 1421 1421 1421 1424 1428 1430 1433 1434 1448 1464 1464 1460 1462 1462 1464 1467 1473 1479 1489 1485 1474
1396 1397 1398 1399 1400 1401 1404 1404 1403 1408 1407 1401 1399 1393 1390 1391 1392 1392 1393 1393 1395 1402 1411 1410 1418 1419 1421 1423 1427 1425 1428 1440 1444 1446 1445 1452 1459 1461 1465 1462 1478 1479 1476 1465
1390 1391 1392 1393 1396 1397 1400 1399 1395 1395 1397 1395 1393 1391 1388 1390 1388 1392 1391 1392 1392 1396 1409 1411 1412 1417 1419 1421 1422 1426 1429 1435 1439 1441 1439 1440 1446 1450 1458 1458 1455 1458 1456 1464
1384 1386 1387 1388 1391 1393 1394 1393 1391 1391 1387 1386 1386 1388 1385 1385 1387 1387 1384 1385 1392 1393 1400 1401 1408 1409 1413 1415 1423 1426 1431 1437 1439 1444 1444 1443 1446 1447 1448 1450 1456 1455 1455 1455
1379 1380 1381 1383 1386 1388 1388 1388 1387 1387 1382 1382 1382 1380 1381 1381 1383 1384 1384 1384 1391 1392 1396 1396 1396 1401 1406 1409 1418 1425 1430 1438 1441 1446 1445 1445 1448 1441 1445 1443 1446 1442 1451 1436
1373 1373 1375 1378 1380 1382 1384 1385 1386 1385 1379 1381 1377 1375 1379 1381 1383 1383 1386 1387 1388 1397 1396 1397 1402 1406 1410 1412 1421 1423 1428 1433 1440 1451 1447 1456 1429 1428 1429 1433 1437 1439 1439 1440
1367 1368 1370 1373 1375 1378 1380 1382 1384 1382 1378 1376 1376 1375 1378 1383 1384 1387 1390 1390 1391 1397 1398 1401 1409 1414 1417 1426 1427 1425 1428 1433 1444 1446 1449 1436 1429 1430 1431 1430 1436 1435 1437 1440
1362 1363 1365 1368 1371 1374 1376 1378 1380 1381 1379 1373 1372 1375 1377 1381 1387 1392 1392 1395 1395 1397 1398 1403 1413 1420 1420 1426 1430 1430 1427 1428 1442 1452 1441 1435 1421 1421 1422 1423 1433 1430 1432 1437
1357 1357 1360 1363 1367 1370 1372 1374 1376 1378 1376 1372 1372 1374 1375 1376 1382 1390 1394 1396 1399 1399 1405 1409 1412 1416 1415 1419 1424 1430 1433 1439 1439 1438 1438 1430 1420 1421 1422 1434 1427 1428 1433 1437
1351 1353 1356 1358 1362 1366 1368 1371 1373 1375 1373 1372 1372 1372 1373 1375 1377 1383 1391 1397 1400 1406 1407 1406 1410 1411 1415 1416 1420 1423 1423 1431 1434 1440 1438 1431 1419 1421 1425 1425 1427 1431 1435 1439
1346 1347 1351 1354 1359 1362 1365 1369 1370 1372 1373 1373 1372 1372 1373 1374 1375 1377 1383 1386 1388 1390 1402 1408 1412 1413 1419 1415 1416 1420 1420 1416 1420 1422 1422 1419 1419 1420 1420 1424 1425 1432 1436 1440
1341 1343 1347 1351 1355 1359 1362 1365 1367 1370 1371 1374 1375 1374 1375 1375 1375 1376 1379 1384 1384 1386 1388 1394 1402 1404 1412 1413 1414 1414 1416 1415 1418 1419 1422 1421 1420 1422 1424 1427 1429 1433 1436 1439
1337 1339 1343 1347 1351 1356 1359 1361 1364 1367 1369 1371 1376 1375 1375 1376 1376 1376 1378 1379 1382 1385 1387 1391 1397 1401 1406 1410 1407 1410 1412 1413 1417 1423 1423 1423 1423 1423 1425 1428 1431 1434 1437 1440
1332 1336 1340 1344 1349 1354 1357 1359 1360 1363 1367 1369 1375 1376 1377 1376 1377 1378 1378 1380 1382 1384 1388 1392 1396 1399 1403 1409 1410 1410 1406 1408 1413 1414 1409 1412 1417 1422 1425 1428 1431 1435 1438 1440
1328 1333 1337 1342 1348 1352 1354 1357 1358 1360 1362 1365 1374 1377 1377 1378 1378 1379 1381 1383 1384 1385 1388 1394 1396 1397 1400 1409 1409 1399 1399 1401 1403 1404 1408 1411 1415 1420 1425 1428 1431 1435 1437 1439
1325 1331 1336 1341 1346 1348 1352 1353 1353 1357 1360 1361 1373 1376 1378 1379 1379 1381 1382 1383 1384 1386 1390 1393 1396 1398 1399 1404 1405 1394 1397 1400 1403 1405 1406 1415 1417 1421 1425 1428 1430 1433 1435 1436
1323 1330 1335 1341 1345 1349 1351 1352 1354 1356 1359 1361 1370 1377 1378 1379 1380 1383 1384 1385 1387 1389 1392 1395 1396 1399 1399 1400 1392 1392 1395 1399 1402 1405 1406 1408 1414 1420 1423 1426 1428 1430 1432 1432
1322 1329 1336 1340 1345 1347 1350 1353 1356 1358 1361 1360 1366 1371 1375 1377 1380 1383 1386 1386 1389 1392 1392 1393 1395 1395 1397 1384 1385 1387 1390 1393 1399 1405 1407 1410 1414 1419 1422 1424 1426 1428 1429 1429
1323 1329 1335 1339 1342 1347 1352 1356 1358 1359 1355 1358 1364 1366 1371 1375 1379 1385 1387 1388 1392 1393 1394 1394 1393 1386 1378 1378 1379 1383 1386 1391 1395 1401 1408 1410 1413 1417 1420 1422 1424 1425 1426 1427
1318 1323 1329 1336 1343 1348 1352 1355 1358 1361 1361 1358 1361 1364 1368 1375 1378 1383 1387 1391 1395 1397 1396 1393 1393 1384 1373 1374 1377 1382 1387 1391 1397 1400 1405 1409 1412 1415 1418 1420 1422 1423 1424 1424
1312 1317 1327 1337 1343 1347 1351 1355 1358 1356 1354 1354 1357 1362 1366 1373 1376 1380 1388 1394 1398 1402 1396 1394 1391 1373 1370 1372 1377 1381 1387 1393 1396 1400 1404 1408 1412 1414 1417 1418 1419 1420 1421 1421
1312 1320 1327 1332 1342 1346 1347 1345 1348 1354 1346 1347 1352 1360 1365 1372 1376 1382 1387 1396 1402 1396 1397 1390 1376 1369 1370 1372 1376 1382 1388 1393 1397 1401 1405 1408 1410 1413 1415 1416 1417 1418 1418 1418
1310 1317 1325 1325 1330 1329 1328 1330 1331 1332 1335 1340 1347 1356 1361 1369 1376 1381 1389 1394 1393 1399 1401 1385 1373 1369 1372 1374 1376 1381 1388 1394 1398 1401 1404 1407 1410 1412 1413 1414 1414 1414 1414 1415
1308 1312 1313 1318 1322 1324 1324 1325 1327 1331 1335 1338 1347 1357 1363 1372 1377 1380 1388 1392 1388 1384 1384 1374 1366 1369 1375 1379 1382 1386 1391 1396 1399 1402 1405 1407 1408 1409 1410 1411 1411 1411 1411 1412
1307 1310 1316 1320 1322 1326 1326 1325 1326 1329 1335 1339 1343 1358 1367 1371 1372 1375 1384 1383 1382 1373 1367 1363 1366 1370 1376 1382 1387 1390 1394 1397 1399 1402 1403 1405 1406 1406 1407 1408 1408 1408 1408 1407
1308 1312 1312 1315 1317 1320 1323 1324 1326 1329 1335 1342 1345 1353 1359 1365 1369 1368 1373 1373 1365 1360 1361 1364 1368 1373 1379 1384 1388 1392 1395 1397 1399 1400 1401 1402 1403 1404 1404 1404 1404 1404 1404 1404